This is the latest recevied weather packets stored in our database for station/object VA3BOO. If no packets are shown the sender has not sent any weather packets the latest 10 day(s).
| Time | Temp. | Humidity | Pressure | Rain* | Wind** | Luminosity | Snow |
|---|---|---|---|---|---|---|---|
| 1778020505 | 15° C | 54% | 1006.1 hPa | 0 mm | - | 12 W/m² | - |
| 1778020205 | 15° C | 51% | 1006.1 hPa | 0 mm | - | 12 W/m² | - |
| 1778019905 | 15° C | 52% | 1005.8 hPa | 0 mm | - | 14 W/m² | - |
| 1778019605 | 15.56° C | 54% | 1005.5 hPa | 0 mm | - | 13 W/m² | - |
| 1778019305 | 15.56° C | 55% | 1005.5 hPa | 0 mm | - | 14 W/m² | - |
| 1778019005 | 15.56° C | 53% | 1005.3 hPa | 0 mm | - | 12 W/m² | - |
| 1778018705 | 15.56° C | 55% | 1005.2 hPa | 0 mm | - | 16 W/m² | - |
| 1778018405 | 15.56° C | 56% | 1005.2 hPa | 0 mm | - | 31 W/m² | - |
| 1778018105 | 15.56° C | 56% | 1005 hPa | 0 mm | - | 38 W/m² | - |
| 1778017805 | 15.56° C | 56% | 1004.7 hPa | 0 mm | - | 22 W/m² | - |
| 1778017505 | 15.56° C | 57% | 1004.7 hPa | 0 mm | - | 22 W/m² | - |
| 1778017205 | 15.56° C | 57% | 1004.8 hPa | 0 mm | - | 25 W/m² | - |
| 1778016905 | 15.56° C | 59% | 1004.4 hPa | 0 mm | - | 32 W/m² | - |
| 1778016605 | 15.56° C | 58% | 1004.3 hPa | 0 mm | - | 31 W/m² | - |
| 1778016305 | 15.56° C | 58% | 1004.5 hPa | 0 mm | - | 33 W/m² | - |
| 1778016005 | 15.56° C | 57% | 1004.2 hPa | 0 mm | - | 34 W/m² | - |
| 1778015705 | 16.11° C | 59% | 1004.2 hPa | 0 mm | - | 20 W/m² | - |
| 1778015405 | 16.11° C | 58% | 1004.2 hPa | 0 mm | - | 23 W/m² | - |
| 1778015105 | 16.11° C | 57% | 1004.1 hPa | 0 mm | - | 35 W/m² | - |
| 1778014805 | 16.67° C | 59% | 1003.8 hPa | 0 mm | - | 65 W/m² | - |
| 1778014505 | 16.67° C | 58% | 1003.8 hPa | 0 mm | - | 77 W/m² | - |
| 1778014205 | 16.67° C | 61% | 1003.7 hPa | 0 mm | - | 77 W/m² | - |
| 1778013905 | 16.67° C | 61% | 1003.8 hPa | 0 mm | - | 32 W/m² | - |
| 1778013605 | 17.22° C | 64% | 1003.8 hPa | 0 mm | - | 25 W/m² | - |
| 1778013305 | 17.78° C | 63% | 1003.7 hPa | 0 mm | - | 18 W/m² | - |
* Rain latest hour (hover to see other rain measurements)
** Current wind speed in m/s (hover to see current wind gust speed)